Time,TemperatureF,DewpointF,PressureIn,WindDirection,WindDirectionDegrees,WindSpeedMPH,WindSpeedGustMPH,Humidity,HourlyPrecipIn,Conditions,Clouds,dailyrainin,SoftwareType,DateUTC
2013-04-22 00:00:00,67.8,66.9,30.06,ENE,76,0.0,0.0,97,0.00,,,0.00,Wunderground v.1.13,2013-04-22 04:00:00,
2013-04-22 00:10:00,67.8,66.9,30.06,ENE,76,0.0,0.0,97,0.00,,,0.00,Wunderground v.1.13,2013-04-22 04:10:00,
2013-04-22 00:20:00,67.8,66.9,30.05,ENE,76,0.0,0.0,97,0.00,,,0.00,Wunderground v.1.13,2013-04-22 04:20:00,
2013-04-22 00:30:00,67.6,66.7,30.03,ESE,116,0.0,0.0,97,0.00,,,0.00,Wunderground v.1.13,2013-04-22 04:30:00,
2013-04-22 00:40:00,67.6,66.7,30.03,ESE,113,0.0,0.0,97,0.00,,,0.00,Wunderground v.1.13,2013-04-22 04:40:00,
2013-04-22 00:50:00,67.6,66.7,30.04,ESE,112,0.0,0.0,97,0.00,,,0.00,Wunderground v.1.13,2013-04-22 04:50:00,
2013-04-22 01:01:00,67.6,67.0,30.05,N/A,-737280,0.0,0.0,98,0.00,,,0.00,Wunderground v.1.13,2013-04-22 05:01:00,
2013-04-22 01:10:00,67.6,67.0,30.05,ESE,103,0.0,0.0,98,0.00,,,0.00,Wunderground v.1.13,2013-04-22 05:10:00,
2013-04-22 01:20:00,67.6,67.0,30.06,ESE,103,0.0,0.0,98,0.00,,,0.00,Wunderground v.1.13,2013-04-22 05:20:00,
2013-04-22 01:30:00,67.6,67.0,30.07,ESE,103,0.0,0.0,98,0.00,,,0.00,Wunderground v.1.13,2013-04-22 05:30:00,
2013-04-22 01:40:00,67.6,67.0,30.07,North,0,0.0,0.0,98,0.00,,,0.00,Wunderground v.1.13,2013-04-22 05:40:00,
2013-04-22 01:50:00,67.4,66.8,30.07,North,10,0.0,0.0,98,0.00,,,0.00,Wunderground v.1.13,2013-04-22 05:50:00,
2013-04-22 02:00:00,67.4,66.8,30.06,North,10,0.0,0.0,98,0.00,,,0.00,Wunderground v.1.13,2013-04-22 06:00:00,
2013-04-22 02:10:00,67.4,66.8,30.06,North,10,0.0,0.0,98,0.00,,,0.00,Wunderground v.1.13,2013-04-22 06:10:00,
2013-04-22 02:20:00,67.4,66.8,30.05,North,10,0.0,0.0,98,0.00,,,0.00,Wunderground v.1.13,2013-04-22 06:20:00,
2013-04-22 02:30:00,67.3,66.7,30.04,NNE,21,0.0,0.0,98,0.00,,,0.00,Wunderground v.1.13,2013-04-22 06:30:00,
2013-04-22 02:40:00,67.1,66.8,30.04,NE,56,0.0,0.0,99,0.00,,,0.00,Wunderground v.1.13,2013-04-22 06:40:00,
2013-04-22 02:50:00,67.3,67.0,30.03,NE,56,0.0,0.0,99,0.00,,,0.00,Wunderground v.1.13,2013-04-22 06:50:00,
2013-04-22 03:00:00,67.3,67.0,30.03,NE,56,0.0,0.0,99,0.00,,,0.00,Wunderground v.1.13,2013-04-22 07:00:00,
2013-04-22 03:10:00,67.3,67.0,30.03,ENE,72,0.0,0.0,99,0.00,,,0.00,Wunderground v.1.13,2013-04-22 07:10:00,
2013-04-22 03:20:00,67.3,67.0,30.03,East,97,0.0,0.0,99,0.00,,,0.00,Wunderground v.1.13,2013-04-22 07:20:00,
2013-04-22 03:30:00,67.3,67.0,30.02,East,97,0.0,0.0,99,0.00,,,0.00,Wunderground v.1.13,2013-04-22 07:30:00,
2013-04-22 03:40:00,67.4,67.1,30.02,East,90,0.0,0.0,99,0.00,,,0.00,Wunderground v.1.13,2013-04-22 07:40:00,
2013-04-22 03:50:00,67.4,67.1,30.02,East,93,0.0,0.0,99,0.00,,,0.00,Wunderground v.1.13,2013-04-22 07:50:00,
2013-04-22 04:00:00,67.6,67.3,30.02,East,93,0.0,0.0,99,0.00,,,0.00,Wunderground v.1.13,2013-04-22 08:00:00,
2013-04-22 04:10:00,67.6,67.6,30.02,East,93,0.0,0.0,100,0.00,,,0.00,Wunderground v.1.13,2013-04-22 08:10:00,
2013-04-22 04:20:00,67.6,67.6,30.01,East,93,0.0,0.0,100,0.00,,,0.00,Wunderground v.1.13,2013-04-22 08:20:00,
2013-04-22 04:30:00,67.6,67.6,30.00,East,93,0.0,0.0,100,0.00,,,0.00,Wunderground v.1.13,2013-04-22 08:30:00,
2013-04-22 04:40:00,67.6,67.6,30.00,East,93,0.0,0.0,100,0.00,,,0.00,Wunderground v.1.13,2013-04-22 08:40:00,
2013-04-22 04:50:00,67.6,67.6,30.00,East,93,0.0,0.0,100,0.00,,,0.00,Wunderground v.1.13,2013-04-22 08:50:00,
2013-04-22 05:00:00,67.6,67.6,30.00,East,93,0.0,0.0,100,0.00,,,0.00,Wunderground v.1.13,2013-04-22 09:00:00,
2013-04-22 05:10:00,67.4,67.4,30.00,East,93,0.0,0.0,100,0.00,,,0.00,Wunderground v.1.13,2013-04-22 09:10:00,
2013-04-22 05:20:00,67.4,67.4,29.99,East,93,0.0,0.0,100,0.00,,,0.00,Wunderground v.1.13,2013-04-22 09:20:00,
2013-04-22 05:30:00,67.3,67.3,29.99,ENE,78,0.0,0.0,100,0.00,,,0.00,Wunderground v.1.13,2013-04-22 09:30:00,
2013-04-22 05:40:00,67.1,67.1,29.99,ENE,78,0.0,0.0,100,0.00,,,0.00,Wunderground v.1.13,2013-04-22 09:40:00,
2013-04-22 05:50:00,67.1,67.1,29.99,ENE,78,0.0,0.0,100,0.00,,,0.00,Wunderground v.1.13,2013-04-22 09:50:00,
2013-04-22 06:00:00,66.9,66.9,29.99,ENE,78,0.0,0.0,100,0.00,,,0.00,Wunderground v.1.13,2013-04-22 10:00:00,
2013-04-22 06:10:00,66.8,66.8,29.99,ENE,78,0.0,0.0,100,0.00,,,0.00,Wunderground v.1.13,2013-04-22 10:10:00,
2013-04-22 06:20:00,66.8,66.8,29.99,ENE,78,0.0,0.0,100,0.00,,,0.00,Wunderground v.1.13,2013-04-22 10:20:00,
2013-04-22 06:30:00,66.6,66.6,29.99,ENE,78,0.0,0.0,100,0.00,,,0.00,Wunderground v.1.13,2013-04-22 10:30:00,
2013-04-22 06:40:00,66.6,66.6,29.99,ENE,78,0.0,0.0,100,0.00,,,0.00,Wunderground v.1.13,2013-04-22 10:40:00,
2013-04-22 06:50:00,66.6,66.6,30.00,NE,38,0.0,0.0,100,0.00,,,0.00,Wunderground v.1.13,2013-04-22 10:50:00,
2013-04-22 07:00:00,66.8,66.8,30.01,NNE,25,0.0,0.0,100,0.00,,,0.00,Wunderground v.1.13,2013-04-22 11:00:00,
2013-04-22 07:10:00,66.8,66.8,30.01,North,357,0.0,0.0,100,0.00,,,0.00,Wunderground v.1.13,2013-04-22 11:10:00,
2013-04-22 07:20:00,66.8,66.8,30.01,NNW,340,0.0,0.0,100,0.00,,,0.00,Wunderground v.1.13,2013-04-22 11:20:00,
2013-04-22 07:30:00,66.8,66.8,30.01,NNW,340,0.0,0.0,100,0.00,,,0.00,Wunderground v.1.13,2013-04-22 11:30:00,
2013-04-22 07:40:00,66.9,66.9,30.01,NNW,340,0.0,0.0,100,0.00,,,0.00,Wunderground v.1.13,2013-04-22 11:40:00,
2013-04-22 07:50:00,66.9,66.9,30.02,NNW,344,0.0,0.0,100,0.00,,,0.00,Wunderground v.1.13,2013-04-22 11:50:00,
2013-04-22 08:00:00,66.9,66.9,30.03,NE,34,0.0,0.0,100,0.00,,,0.00,Wunderground v.1.13,2013-04-22 12:00:00,
2013-04-22 08:10:00,66.9,66.9,30.03,NE,34,0.0,0.0,100,0.00,,,0.00,Wunderground v.1.13,2013-04-22 12:10:00,
2013-04-22 08:20:00,66.9,66.9,30.03,NNE,23,0.0,0.0,100,0.00,,,0.00,Wunderground v.1.13,2013-04-22 12:20:00,
2013-04-22 08:30:00,66.8,66.8,30.03,ENE,69,0.0,0.0,100,0.00,,,0.00,Wunderground v.1.13,2013-04-22 12:30:00,
2013-04-22 08:40:00,66.8,66.8,30.03,North,8,0.0,0.0,100,0.00,,,0.00,Wunderground v.1.13,2013-04-22 12:40:00,
2013-04-22 08:50:00,66.8,66.8,30.04,NE,37,0.0,0.0,100,0.00,,,0.00,Wunderground v.1.13,2013-04-22 12:50:00,
2013-04-22 09:00:00,66.9,66.9,30.04,NE,37,0.0,0.0,100,0.00,,,0.00,Wunderground v.1.13,2013-04-22 13:00:00,
2013-04-22 09:10:00,67.3,67.3,30.04,NE,37,0.0,0.0,100,0.00,,,0.00,Wunderground v.1.13,2013-04-22 13:10:00,
2013-04-22 09:20:00,67.4,67.4,30.05,NNE,25,0.0,0.0,100,0.00,,,0.00,Wunderground v.1.13,2013-04-22 13:20:00,
2013-04-22 09:30:00,67.6,67.6,30.05,NNE,25,0.0,0.0,100,0.00,,,0.00,Wunderground v.1.13,2013-04-22 13:30:00,
2013-04-22 09:40:00,67.8,67.8,30.05,NNE,25,0.0,0.0,100,0.00,,,0.00,Wunderground v.1.13,2013-04-22 13:40:00,
2013-04-22 09:50:00,67.8,67.8,30.05,NNE,28,0.0,0.0,100,0.00,,,0.00,Wunderground v.1.13,2013-04-22 13:50:00,
2013-04-22 10:00:00,67.9,67.9,30.05,NNE,28,0.0,0.0,100,0.00,,,0.00,Wunderground v.1.13,2013-04-22 14:00:00,
2013-04-22 10:10:00,68.3,68.3,30.05,North,0,0.0,0.0,100,0.00,,,0.00,Wunderground v.1.13,2013-04-22 14:10:00,
2013-04-22 10:30:00,68.9,68.9,30.06,NE,55,0.0,0.0,100,0.00,,,0.00,Wunderground v.1.13,2013-04-22 14:30:00,
2013-04-22 10:40:00,69.3,69.3,30.06,NE,55,0.0,0.0,100,0.00,,,0.00,Wunderground v.1.13,2013-04-22 14:40:00,
2013-04-22 11:00:00,69.6,69.0,30.07,ENE,66,0.0,0.0,98,0.00,,,0.00,Wunderground v.1.13,2013-04-22 15:00:00,
2013-04-22 11:11:00,70.1,69.2,30.07,NE,40,0.0,0.0,97,0.00,,,0.00,Wunderground v.1.13,2013-04-22 15:11:00,
2013-04-22 11:30:00,71.3,69.5,30.07,ENE,64,0.0,0.0,94,0.00,,,0.00,Wunderground v.1.13,2013-04-22 15:30:00,
2013-04-22 11:40:00,72.1,69.3,30.07,ENE,64,0.0,0.0,91,0.00,,,0.00,Wunderground v.1.13,2013-04-22 15:40:00,
2013-04-22 12:01:00,73.3,69.2,30.07,East,100,0.0,0.0,87,0.00,,,0.00,Wunderground v.1.13,2013-04-22 16:01:00,
2013-04-22 12:10:00,73.7,68.9,30.07,ENE,68,0.0,1.0,85,0.00,,,0.00,Wunderground v.1.13,2013-04-22 16:10:00,
2013-04-22 12:31:00,75.1,68.9,30.06,NE,34,0.0,0.0,81,0.00,,,0.00,Wunderground v.1.13,2013-04-22 16:31:00,
2013-04-22 12:40:00,76.1,69.5,30.06,NNE,28,0.0,0.0,80,0.00,,,0.00,Wunderground v.1.13,2013-04-22 16:40:00,
2013-04-22 13:00:00,78.1,69.5,30.05,NNW,347,0.0,0.0,75,0.00,,,0.00,Wunderground v.1.13,2013-04-22 17:00:00,
2013-04-22 13:10:00,78.5,69.5,30.05,NE,45,0.0,0.0,74,0.00,,,0.00,Wunderground v.1.13,2013-04-22 17:10:00,
2013-04-22 13:30:00,79.6,69.8,30.04,NNE,18,0.0,0.0,72,0.00,,,0.00,Wunderground v.1.13,2013-04-22 17:30:00,
2013-04-22 13:41:00,79.2,69.8,30.04,East,90,0.0,1.0,73,0.00,,,0.00,Wunderground v.1.13,2013-04-22 17:41:00,
2013-04-22 14:00:00,78.8,69.8,30.03,ENE,69,0.0,0.0,74,0.00,,,0.00,Wunderground v.1.13,2013-04-22 18:00:00,
2013-04-22 14:10:00,78.5,69.1,30.03,NE,41,0.0,0.0,73,0.00,,,0.00,Wunderground v.1.13,2013-04-22 18:10:00,
2013-04-22 14:30:00,79.9,69.2,30.02,East,83,0.0,0.0,70,0.00,,,0.00,Wunderground v.1.13,2013-04-22 18:30:00,
2013-04-22 14:40:00,80.1,69.4,30.02,SE,128,0.0,0.0,70,0.00,,,0.00,Wunderground v.1.13,2013-04-22 18:40:00,
2013-04-22 14:50:00,79.4,68.8,30.02,East,86,0.0,0.0,70,0.00,,,0.00,Wunderground v.1.13,2013-04-22 18:50:00,
2013-04-22 15:00:00,80.5,69.4,30.01,ENE,65,0.0,0.0,69,0.00,,,0.00,Wunderground v.1.13,2013-04-22 19:00:00,
2013-04-22 15:10:00,80.7,69.2,30.01,NE,52,0.0,0.0,68,0.00,,,0.00,Wunderground v.1.13,2013-04-22 19:10:00,
2013-04-22 15:20:00,81.1,68.7,30.01,NE,47,0.0,0.0,66,0.00,,,0.00,Wunderground v.1.13,2013-04-22 19:20:00,
2013-04-22 15:30:00,80.1,69.0,30.00,NE,51,0.0,0.0,69,0.00,,,0.00,Wunderground v.1.13,2013-04-22 19:30:00,
2013-04-22 15:40:00,79.9,68.8,30.00,North,349,0.0,0.0,69,0.00,,,0.00,Wunderground v.1.13,2013-04-22 19:40:00,
2013-04-22 15:50:00,79.8,68.7,30.00,North,0,0.0,0.0,69,0.00,,,0.00,Wunderground v.1.13,2013-04-22 19:50:00,
2013-04-22 16:00:00,80.9,68.0,29.99,SE,140,0.0,0.0,65,0.00,,,0.00,Wunderground v.1.13,2013-04-22 20:00:00,
2013-04-22 16:10:00,80.9,68.0,29.99,ENE,69,0.0,1.0,65,0.00,,,0.00,Wunderground v.1.13,2013-04-22 20:10:00,
2013-04-22 16:20:00,81.1,68.2,29.98,NE,38,0.0,0.0,65,0.00,,,0.00,Wunderground v.1.13,2013-04-22 20:20:00,
2013-04-22 16:30:00,80.5,68.1,29.98,North,352,0.0,0.0,66,0.00,,,0.00,Wunderground v.1.13,2013-04-22 20:30:00,
2013-04-22 16:40:00,79.8,67.4,29.98,North,0,0.0,0.0,66,0.00,,,0.00,Wunderground v.1.13,2013-04-22 20:40:00,
2013-04-22 16:50:00,80.1,68.2,29.97,North,4,0.0,0.0,67,0.00,,,0.00,Wunderground v.1.13,2013-04-22 20:50:00,
2013-04-22 17:00:00,80.1,68.2,29.97,North,0,0.0,0.0,67,0.00,,,0.00,Wunderground v.1.13,2013-04-22 21:00:00,
2013-04-22 17:10:00,79.8,67.9,29.97,North,4,0.0,0.0,67,0.00,,,0.00,Wunderground v.1.13,2013-04-22 21:10:00,
2013-04-22 17:20:00,79.4,67.5,29.97,ENE,65,0.0,0.0,67,0.00,,,0.00,Wunderground v.1.13,2013-04-22 21:20:00,
2013-04-22 17:30:00,79.0,67.5,29.97,NE,44,0.0,0.0,68,0.00,,,0.00,Wunderground v.1.13,2013-04-22 21:30:00,
2013-04-22 17:41:00,78.6,67.2,29.97,NE,35,0.0,0.0,68,0.00,,,0.00,Wunderground v.1.13,2013-04-22 21:41:00,
2013-04-22 17:50:00,79.2,67.7,29.97,NW,325,0.0,0.0,68,0.00,,,0.00,Wunderground v.1.13,2013-04-22 21:50:00,
2013-04-22 18:01:00,79.0,68.0,29.97,North,359,0.0,1.0,69,0.00,,,0.00,Wunderground v.1.13,2013-04-22 22:01:00,
2013-04-22 18:10:00,79.0,68.4,29.97,North,0,0.0,1.0,70,0.00,,,0.00,Wunderground v.1.13,2013-04-22 22:10:00,
2013-04-22 18:20:00,79.4,68.3,29.97,NE,44,0.0,0.0,69,0.00,,,0.00,Wunderground v.1.13,2013-04-22 22:20:00,
2013-04-22 18:30:00,78.5,67.9,29.98,NE,37,0.0,0.0,70,0.00,,,0.00,Wunderground v.1.13,2013-04-22 22:30:00,
2013-04-22 18:40:00,78.5,67.9,29.98,ENE,61,0.0,0.0,70,0.00,,,0.00,Wunderground v.1.13,2013-04-22 22:40:00,
2013-04-22 18:50:00,77.9,68.1,29.97,ENE,59,0.0,0.0,72,0.00,,,0.00,Wunderground v.1.13,2013-04-22 22:50:00,
2013-04-22 19:00:00,77.2,67.9,29.98,East,96,1.0,1.0,73,0.00,,,0.00,Wunderground v.1.13,2013-04-22 23:00:00,
2013-04-22 19:10:00,76.0,67.9,29.98,NE,49,1.0,1.0,76,0.00,,,0.00,Wunderground v.1.13,2013-04-22 23:10:00,
2013-04-22 19:20:00,75.4,67.7,29.99,NE,38,0.0,0.0,77,0.00,,,0.00,Wunderground v.1.13,2013-04-22 23:20:00,
2013-04-22 19:30:00,74.6,67.3,29.99,NE,35,1.0,1.0,78,0.00,,,0.00,Wunderground v.1.13,2013-04-22 23:30:00,
2013-04-22 19:40:00,73.7,67.1,29.99,NNE,16,0.0,1.0,80,0.00,,,0.00,Wunderground v.1.13,2013-04-22 23:40:00,
2013-04-22 19:50:00,72.8,66.6,30.00,NE,51,1.0,4.0,81,0.00,,,0.00,Wunderground v.1.13,2013-04-22 23:50:00,
2013-04-22 20:00:00,72.1,66.3,30.01,NNE,30,1.0,1.0,82,0.00,,,0.00,Wunderground v.1.13,2013-04-23 00:00:00,
2013-04-22 20:10:00,71.8,66.4,30.01,West,277,1.0,1.0,83,0.00,,,0.00,Wunderground v.1.13,2013-04-23 00:10:00,
2013-04-22 20:20:00,71.3,65.9,30.01,NE,42,1.0,1.0,83,0.00,,,0.00,Wunderground v.1.13,2013-04-23 00:20:00,
2013-04-22 20:30:00,71.1,65.7,30.02,NE,54,0.0,0.0,83,0.00,,,0.00,Wunderground v.1.13,2013-04-23 00:30:00,
2013-04-22 20:40:00,70.9,65.8,30.02,NE,51,1.0,1.0,84,0.00,,,0.00,Wunderground v.1.13,2013-04-23 00:40:00,
2013-04-22 20:50:00,70.4,65.3,30.02,NE,38,1.0,1.0,84,0.00,,,0.00,Wunderground v.1.13,2013-04-23 00:50:00,
2013-04-22 21:00:00,70.3,65.6,30.03,SE,126,0.0,0.0,85,0.00,,,0.00,Wunderground v.1.13,2013-04-23 01:00:00,
2013-04-22 21:10:00,69.9,64.8,30.03,NNE,28,1.0,2.0,84,0.00,,,0.00,Wunderground v.1.13,2013-04-23 01:10:00,
2013-04-22 21:20:00,69.6,64.5,30.04,East,88,0.0,7.0,84,0.00,,,0.00,Wunderground v.1.13,2013-04-23 01:20:00,
2013-04-22 21:30:00,69.3,64.3,30.05,NE,49,1.0,1.0,84,0.00,,,0.00,Wunderground v.1.13,2013-04-23 01:30:00,
2013-04-22 21:40:00,69.1,64.1,30.05,ENE,73,0.0,0.0,84,0.00,,,0.00,Wunderground v.1.13,2013-04-23 01:40:00,
2013-04-22 21:50:00,68.9,64.2,30.05,NE,54,0.0,0.0,85,0.00,,,0.00,Wunderground v.1.13,2013-04-23 01:50:00,
2013-04-22 22:00:00,68.8,64.1,30.06,NE,45,1.0,1.0,85,0.00,,,0.00,Wunderground v.1.13,2013-04-23 02:00:00,
2013-04-22 22:10:00,68.6,63.9,30.06,East,82,0.0,0.0,85,0.00,,,0.00,Wunderground v.1.13,2013-04-23 02:10:00,
2013-04-22 22:20:00,68.3,63.6,30.07,East,85,1.0,4.0,85,0.00,,,0.00,Wunderground v.1.13,2013-04-23 02:20:00,
2013-04-22 22:30:00,68.1,63.8,30.06,ESE,114,1.0,1.0,86,0.00,,,0.00,Wunderground v.1.13,2013-04-23 02:30:00,
2013-04-22 22:40:00,67.9,63.6,30.06,NE,56,0.0,0.0,86,0.00,,,0.00,Wunderground v.1.13,2013-04-23 02:40:00,
2013-04-22 22:50:00,67.6,63.6,30.06,NE,56,0.0,0.0,87,0.00,,,0.00,Wunderground v.1.13,2013-04-23 02:50:00,
2013-04-22 23:00:00,67.3,63.3,30.07,NE,56,1.0,1.0,87,0.00,,,0.00,Wunderground v.1.13,2013-04-23 03:00:00,
2013-04-22 23:10:00,67.1,63.4,30.07,ENE,68,0.0,0.0,88,0.00,,,0.00,Wunderground v.1.13,2013-04-23 03:10:00,
2013-04-22 23:20:00,67.1,63.1,30.06,NE,48,1.0,1.0,87,0.00,,,0.00,Wunderground v.1.13,2013-04-23 03:20:00,
2013-04-22 23:30:00,67.1,63.1,30.07,NE,38,1.0,1.0,87,0.00,,,0.00,Wunderground v.1.13,2013-04-23 03:30:00,
2013-04-22 23:40:00,66.9,63.2,30.07,NNE,16,0.0,1.0,88,0.00,,,0.00,Wunderground v.1.13,2013-04-23 03:40:00,
2013-04-22 23:50:00,66.9,63.2,30.07,NE,54,1.0,4.0,88,0.00,,,0.00,Wunderground v.1.13,2013-04-23 03:50:00,